{"data":{"norad_id":66199,"intl_designator":"2025-243Y","name":"STARLINK-35509","alt_names":[],"object_type":"PAYLOAD","status":"ACTIVE","operator":null,"country":"US","launch_date":"2025-10-26","launch_site_code":"AFETR","launch_vehicle":null,"mission":null,"orbit_class":"UNKNOWN","rcs_meters":null,"size_class":null,"mass_kg":null,"dimensions":null,"purposes":["comms"],"wikipedia_slug":null,"has_3d_model":false,"image_url":null,"decayed_at":null,"tle_current":{"epoch":"2026-05-25T00:42:25.674048Z","epoch_age_seconds":68711,"freshness":"FRESH","line1":"1 66199U 25243Y   26145.02946382  .00017299  00000+0  59475-3 0  9999","line2":"2 66199  53.1586 250.5219 0001223  86.0890 274.0251 15.30204713 32343","mean_motion":15.30204713,"eccentricity":0.0001223,"inclination_deg":53.1586,"raan_deg":250.5219,"arg_perigee_deg":86.089,"mean_anomaly_deg":274.0251,"bstar":0.00059475,"rev_number":3234,"period_min":94.105055863856,"perigee_km":474.3628340499,"apogee_km":476.03916052403,"semimajor_km":6853.337997287,"source":"CELESTRAK","updated_at":"2026-05-25T13:38:21.124591Z"}}}